Lawton, OK

12:42 AM CST on November 25, 2017 (GMT -0600)
Lawton-Fort Sill Regional

Weather History for KLAW - January, 2014

Change the Weather History Date:

Sunday, January 12, 2014

  Actual Average Record
Temperature  
Mean Temperature 52 °F -  
Max Temperature 79 °F 48 °F 79 °F (2014)
Min Temperature 24 °F 23 °F 1 °F (1963)
Degree Days  
Heating Degree Days 14    
Growing Degree Days 2 (Base 50)    
Moisture  
Dew Point 29 °F    
Average Humidity 45    
Maximum Humidity 85    
Minimum Humidity 17    
Precipitation  
Precipitation 0.00 in - - ()
Sea Level Pressure  
Sea Level Pressure 29.77 in    
Wind  
Wind Speed 8 mph (SSW)    
Max Wind Speed 25 mph    
Max Gust Speed 37 mph    
Visibility 10 miles    
Events      
Averages and records for this station are not official NWS values.
T = Trace of Precipitation, MM = Missing Value Source: NWS Daily Summary

Daily Weather History Graph

Daily Weather History Graph

Search for Another Location

Airport or City:

Trip Planner

Search our weather history database for the weather conditions in past years. The results will help you decide how hot, cold, wet, or windy it might be!

Date:

Astronomy

Jan. 12, 2014 Rise Set
Actual Time 7:40 AM CST 5:43 PM CST
Civil Twilight 7:13 AM CST 6:11 PM CST
Nautical Twilight 6:42 AM CST 6:42 PM CST
Astronomical Twilight 6:11 AM CST 7:12 PM CST
Moon 3:11 PM CST (1/12) 4:41 AM CST (1/12)
Length of Visible Light 10h 57m
Length of Day
10h 02m
Waxing Gibbous, 90% of the Moon is Illuminated
Jan 12
Waxing Gibbous
Jan 15
Full
Jan 23
Last Quarter
Jan 30
New
Feb 6
First Quarter

Hourly Weather History & Observations

Time (CST) Temp. Windchill Dew Point Humidity Pressure Visibility Wind Dir Wind Speed Gust Speed Precip Events Conditions
12:53 AM 39.0 °F 36.8 °F 23.0 °F 53% 29.94 in 10.0 mi SSE 3.5 mph - N/A   Clear
1:53 AM 32.0 °F - 23.0 °F 69% 29.93 in 10.0 mi Calm Calm - N/A   Clear
2:53 AM 28.0 °F - 21.0 °F 75% 29.92 in 10.0 mi Calm Calm - N/A   Clear
3:53 AM 26.1 °F - 21.0 °F 81% 29.91 in 10.0 mi Calm Calm - N/A   Clear
4:53 AM 27.0 °F 23.0 °F 21.0 °F 78% 29.89 in 10.0 mi ESE 3.5 mph - N/A   Clear
5:53 AM 25.0 °F - 21.0 °F 85% 29.88 in 10.0 mi Calm Calm - N/A   Clear
6:53 AM 24.1 °F - 19.9 °F 84% 29.88 in 10.0 mi Calm Calm - N/A   Clear
7:53 AM 27.0 °F - 21.9 °F 81% 29.87 in 10.0 mi Calm Calm - N/A   Clear
8:53 AM 44.1 °F 39.5 °F 30.0 °F 58% 29.86 in 10.0 mi SSW 8.1 mph - N/A   Clear
9:53 AM 55.9 °F - 32.0 °F 40% 29.85 in 10.0 mi South 12.7 mph - N/A   Clear
10:53 AM 62.1 °F - 30.9 °F 31% 29.82 in 10.0 mi SSW 19.6 mph 35.7 mph N/A   Clear
11:53 AM 66.9 °F - 32.0 °F 27% 29.77 in 10.0 mi SSW 19.6 mph 28.8 mph N/A   Clear
12:53 PM 71.1 °F - 33.1 °F 25% 29.71 in 10.0 mi South 20.7 mph 28.8 mph N/A   Clear
1:53 PM 75.9 °F - 32.0 °F 20% 29.65 in 10.0 mi SSW 19.6 mph 34.5 mph N/A   Clear
2:53 PM 78.1 °F - 30.9 °F 18% 29.62 in 10.0 mi SSW 25.3 mph 36.8 mph N/A   Clear
3:53 PM 79.0 °F - 30.9 °F 17% 29.60 in 10.0 mi South 24.2 mph 33.4 mph N/A   Clear
4:53 PM 77.0 °F - 30.9 °F 19% 29.61 in 10.0 mi SSW 18.4 mph 26.5 mph N/A   Clear
5:53 PM 71.1 °F - 32.0 °F 24% 29.61 in 10.0 mi South 15.0 mph - N/A   Clear
6:53 PM 69.1 °F - 33.1 °F 26% 29.62 in 10.0 mi South 17.3 mph 26.5 mph N/A   Clear
7:53 PM 66.9 °F - 35.1 °F 31% 29.66 in 10.0 mi SSW 12.7 mph 19.6 mph N/A   Clear
8:53 PM 61.0 °F - 35.1 °F 38% 29.67 in 10.0 mi SSW 8.1 mph - N/A   Clear
9:53 PM 55.9 °F - 36.0 °F 47% 29.73 in 10.0 mi NW 17.3 mph 28.8 mph N/A   Clear
10:12 PM 59.0 °F - 28.4 °F 31% 29.74 in 10.0 mi North 19.6 mph 28.8 mph N/A   Clear
10:53 PM 57.9 °F - 30.0 °F 35% 29.76 in 10.0 mi North 17.3 mph 27.6 mph N/A   Clear
11:53 PM 54.0 °F - 30.9 °F 41% 29.80 in 10.0 mi North 16.1 mph - N/A   Clear